Tracking 25689 objects as of 7-Jul-2022
HD Live streaming from Space Station
objects crossing your sky now

FENGYUN 1C DEB

Track FENGYUN 1C DEB now!
10-day predictions


NORAD ID: 30338
Int'l Code: 1999-025AAZ
Perigee: 563.4 km
Apogee: 1,049.3 km
Inclination: 98.6 °
Period: 100.9 minutes
Semi major axis: 7177 km
RCS: 0.0507 m2 (small)
Launch date: May 10, 1999
Source: People's Republic of China (PRC)
Launch site: Taiyaun Space Center, China (TSC)

Note: This is SATELLITE DEBRIS
aabbcc
Your satellite tracking list
Your tracking list is empty




NASA's NSSDC Master Catalog

Two Line Element Set (TLE):
1 30338U 99025AAZ 22187.69444760  .00001047  00000-0  24241-3 0  9990
2 30338  98.6078 251.2887 0338467 333.9666 147.2950 14.27769031801284
Source of the keplerian elements: AFSPC